Tracking 20092 objects as of 14-Dec-2019
HD Live streaming from Space Station
objects crossing your sky now

PROMETHEUS 2-6

Track PROMETHEUS 2-6 now!
10-day predictions


NORAD ID: 44386
Int'l Code: 2019-036AB
Perigee: 309.5 km
Apogee: 818.3 km
Inclination: 28.5 °
Period: 95.8 minutes
Semi major axis: 6934 km
RCS: Unknown
Launch date: June 25, 2019
Source: United States (US)
Launch site: AIR FORCE EASTERN TEST RANGE (AFETR)
aabbcc
Your satellite tracking list
Your tracking list is empty




NASA's NSSDC Master Catalog

Two Line Element Set (TLE):
1 44386U 19036AB  19347.17382566  .00022082  00000-0  32196-3 0  9994
2 44386  28.5213 164.2911 0366849 121.0175 242.6925 15.03295862 24383
Source of the keplerian elements: AFSPC